SCP
0 0 0 0 -0 -0 -0 -0 -0 -0 -0 -0 0 -0 -0 -0 -0 -0 -0 -0 -0 -0 -0 -0 -0 -0 -0 -0 -0 -0 -0 -0 -0 -0 -0 -0 -0 -0 -0 -0 -0 -0 -0
0 0 -0 0 -0 -0 -0 -0 -0 0 0 -0 -0 0 0 -0 -0 -0 -0 -0 -0 -0 -0 -0 -0 -0 -0 -0 -0 -0 -0 -0 0 -0 -0 -0 -0 -0 -0 -0 -0 0 0
-0 -0 -0 0 -0 -0 -0 0 -0 -0 0 0 0 0 0 0 -0 -0 -0 -0 -0 -0 -0 -0 -0 -0 -0 -0 -0 -0 -0 -0 -0 -0 -0 -0 -0 -0 0 -0 -0 -0 -0
0 -0 0 -0 0 -0 -0 0 -0 0 0 0 0 0 0 0 0 -0 -0 0 -0 -0 -0 -0 -0 -0 -0 -0 -0 -0 -0 -0 -0 -0 0 -0 -0 -0 0 0 0 0 0
0 -0 0 0 0 0 -0 0 0 0 0 0 0 0 0 0 0 0 -0 -0 -0 -0 -0 0 -0 -0 -0 -0 -0 0 0 0 0 0 -0 -0 0 0 0 0 0 0 0
0 -0 0 -0 0 0 0 -0 -0 0 0 0 0 0 0 0 0 -0 -0 -0 -0 -0 -0 -0 -0 -0 -0 0 0 0 0 0 0 0 0 0 0 0 0 0 0 0 0
0 -0 0 0 0 0 0 -0 -0 0 0 0 0 0 0 0 0 -0 -0 -0 -0 0 0 0 -0 -0 0 0 0 0 0 0 0 0 0 0 0 0 0 0 0 0 0
0 -0 0 0 0 0 0 0 0 0 0 0 0 0 0 0 -0 -0 -0 0 0 0 0 0 0 0 0 0 0 0 0 0 0 0 0 0 0 0 0 0 0 0 0
-0 -0 0 0 0 0 0 -0 0 0 0 0 0 0 0 0 0 0 0 0 0 0 0 0 0 0 0 0 0 0 0 0 0 0 0 0 0 0 0 0 0 0 0
-0 -0 -0 0 0 0 0 0 0 0 0 0 0 0 0 0 0 0 0 0 0 0 0 0 0 0 0 0 0 0 0 0 0 0 0 0 0 0 0 0 0 0 0
-0 -0 -0 0 0 0 0 0 0 0 0 0 0 0 0 0 0 0 0 0 0 0 0 0 0 0 0 0 0 0 0 0 0 0 0 0 0 0 0 0 0 0 0
0 -0 -0 0 0 0 0 0 0 0 0 0 0 0 0 0 0 0 0 0 0 0 0 0 0 0 0 0 0 0 0 0 0 0 0 0 0 0 0 0 0 0 0
0 -0 -0 0 0 0 0 0 0 0 0 0 0 0 0 0 0 0 0 0 0 0 0 0 0 0 0 0 0 0 0 0 0 0 0 0 0 0 0 0 0 0 0
-0 -0 -0 -0 0 0 0 0 0 0 0 0 0 0 0 0 0 0 0 0 0 0 0 0 0 0 0 0 0 0 0 0 0 0 0 0 0 0 1 0 1 1 0
0 -0 -0 -0 -0 0 0 0 0 0 0 0 0 0 0 0 0 0 0 0 0 0 0 0 0 0 0 0 0 0 0 0 0 0 0 0 0 1 1 1 0 0 0
0 0 -0 -0 0 0 0 0 0 0 0 0 0 0 0 0 0 0 0 0 0 0 0 0 0 0 0 0 0 0 0 0 0 0 0 0 0 0 0 0 0 0 0
0 0 -0 -0 -0 -0 0 0 0 0 0 0 0 0 0 0 0 0 0 0 0 0 0 0 0 0 0 0 0 0 -0 0 0 0 0 0 0 0 0 0 0 0 0
-0 -0 -0 -0 -0 -0 0 0 0 0 0 0 0 0 0 0 0 0 0 0 0 0 0 0 0 0 -0 -0 -0 -0 -0 -0 0 0 0 0 0 0 0 0 0 0 0
-0 -0 -0 -0 -0 -0 0 0 0 0 0 0 0 0 0 0 0 0 0 0 0 0 0 0 0 0 0 -0 -0 -0 -0 -0 -0 0 0 0 0 0 0 0 0 0 0
-0 -0 -0 -0 -0 0 0 0 0 0 0 0 0 0 0 0 0 0 0 0 0 0 0 0 0 0 -0 -0 -0 -0 -0 -0 0 0 0 0 0 0 0 0 0 0 0
-0 -0 -0 0 -0 0 0 0 0 0 0 0 0 0 0 0 0 0 0 0 0 0 0 0 0 0 -0 -0 -0 -0 -0 -0 -0 0 0 0 0 0 0 0 0 0 0
-0 -0 0 0 -0 -0 0 0 0 0 0 0 0 0 0 0 0 0 0 0 0 0 0 0 0 0 0 0 -0 -0 -0 0 0 0 0 0 0 0 0 0 0 0 0
-0 -0 -0 -0 -0 -0 -0 0 0 0 0 0 0 0 0 0 0 0 0 0 0 -0 0 0 0 0 -0 0 0 -0 0 0 0 0 0 0 0 0 0 0 0 0 0
0 0 -0 0 0 -0 -0 -0 0 0 0 0 0 0 0 0 0 0 0 0 0 0 0 0 0 0 0 -0 0 -0 -0 0 -0 -0 0 0 0 0 -0 0 0 0 0
0 0 0 0 -0 -0 -0 -0 0 0 0 0 0 0 0 0 0 0 0 0 0 0 0 0 0 0 0 0 0 0 0 0 0 -0 -0 0 0 0 0 0 0 0 0
0 0 0 0 0 0 -0 -0 0 -0 0 0 0 0 0 0 0 0 0 0 0 0 -0 0 0 0 0 0 0 0 0 0 0 0 0 0 0 0 0 0 0 0 0
Wind_Speed_500mb
35 31 31 29 30 30 27 26 27 29 30 27 24 22 22 22 22 22 25 22 26 28 32 31 33 34 35 34 35 34 32 33 33 30 29 31 30 25 26 26 24 21 19
32 31 34 28 27 30 30 27 28 28 28 24 21 20 21 20 22 22 28 29 31 31 32 32 33 34 36 36 35 37 33 33 33 28 27 27 26 24 23 21 18 18 13
36 37 32 27 25 28 31 25 24 28 28 26 21 19 20 22 26 28 32 33 31 32 32 33 35 34 36 38 39 34 31 30 27 26 23 24 23 19 18 18 17 14 13
37 34 30 26 22 29 30 28 25 28 24 20 16 22 23 26 28 30 31 33 32 34 31 37 38 40 41 43 39 36 32 30 27 23 23 26 26 23 21 22 21 17 13
38 36 33 32 26 27 28 28 19 20 21 23 21 23 24 27 26 29 31 31 30 33 35 39 42 39 38 36 35 31 33 32 29 28 26 27 28 22 20 23 19 16 14
35 32 35 33 32 31 31 25 21 24 25 25 24 24 26 27 27 27 28 29 31 32 38 38 31 30 32 34 31 32 32 31 28 26 25 24 24 19 20 21 19 16 15
35 36 34 31 34 36 30 22 20 21 24 24 26 26 30 30 27 28 27 29 28 31 33 31 37 32 32 35 32 30 31 30 28 26 25 23 23 23 23 22 21 20 18
33 35 35 35 38 31 20 15 13 16 22 24 26 28 29 28 26 26 28 27 25 32 32 33 26 29 31 31 29 32 33 31 29 28 26 26 26 25 24 22 20 18 18
33 34 33 29 25 22 20 18 18 22 22 22 24 25 27 25 24 25 25 23 26 29 31 28 30 30 31 28 28 31 32 31 30 27 27 27 26 24 22 21 19 16 17
33 31 34 30 26 23 21 21 21 22 24 23 25 26 24 25 24 26 25 24 27 32 32 29 26 24 22 23 25 28 27 30 27 27 27 25 24 22 21 20 24 20 20
31 33 35 30 26 26 23 21 20 22 24 24 26 24 26 28 29 29 28 27 28 31 29 23 20 19 17 17 19 22 27 26 24 25 24 22 20 18 17 17 18 20 21
38 38 36 30 26 24 23 23 22 23 24 25 25 27 30 34 34 34 34 33 29 29 27 24 21 16 11 11 14 18 24 23 22 22 20 21 14 13 15 18 18 18 20
38 37 36 32 27 26 23 24 23 28 30 30 29 30 35 38 42 42 41 37 34 31 25 21 16 12 7 6 10 14 19 20 20 18 10 13 16 8 11 17 18 16 19
42 37 35 32 30 26 25 27 32 33 31 30 30 30 32 38 39 35 29 25 25 25 22 18 13 10 7 5 7 10 14 18 18 17 10 8 9 16 19 21 20 20 16
41 39 38 36 32 27 28 36 34 31 27 29 27 27 31 32 28 21 18 17 22 25 24 19 15 11 9 6 9 11 16 20 18 15 10 13 10 12 17 18 19 19 14
40 39 39 38 34 32 34 37 32 28 27 27 27 29 31 24 18 15 14 14 15 24 23 22 18 16 14 15 15 19 21 20 16 10 6 12 19 18 16 15 17 15 12
40 35 40 40 39 37 40 35 31 26 29 29 28 25 18 17 19 13 11 11 15 23 19 17 15 11 9 12 14 14 12 13 9 5 10 16 20 17 17 22 14 14 8
37 41 41 43 42 42 41 37 29 28 33 27 18 18 20 20 17 10 9 10 14 12 8 11 7 6 10 9 3 6 9 3 3 7 10 15 20 20 14 17 14 10 14
39 42 43 48 43 39 36 34 35 32 31 25 20 19 16 14 11 9 8 10 8 5 4 8 6 4 8 11 7 7 6 2 4 8 12 17 21 26 12 12 15 13 14
44 41 42 48 38 41 34 35 37 35 35 27 24 18 15 17 12 11 11 13 10 6 3 9 9 3 11 12 8 4 2 5 11 14 18 19 22 27 16 8 9 18 8
45 41 45 53 41 45 42 44 41 37 42 31 29 28 16 19 14 15 16 20 15 11 7 8 11 5 9 10 12 12 11 15 20 21 24 22 24 21 15 12 8 7 9
40 42 46 50 49 42 38 36 38 40 39 30 27 31 20 18 21 18 20 16 20 18 13 14 7 7 9 6 9 16 17 20 24 26 25 23 23 20 13 12 11 7 5
46 45 40 44 54 48 51 32 42 45 40 33 33 27 21 16 17 17 18 21 19 24 24 19 17 13 13 10 11 6 7 9 19 21 23 21 16 21 10 4 2 8 5
50 45 38 38 46 48 43 46 46 43 39 40 27 23 21 18 14 18 12 13 22 28 31 23 22 20 18 17 14 13 11 8 7 11 13 8 14 20 2 2 7 7 5
55 48 43 44 46 48 46 57 46 42 42 36 31 26 25 23 19 22 20 14 11 21 24 25 22 23 23 21 18 16 14 12 11 9 10 10 10 16 15 11 11 8 8
56 56 50 51 46 52 56 59 58 47 44 39 37 32 32 24 22 26 27 24 14 18 20 20 19 19 22 21 22 14 13 12 9 9 10 13 13 13 17 15 16 13 14
Wind_Direction_500mb
160 164 159 149 155 150 144 138 128 131 130 130 128 122 119 116 111 109 112 117 123 118 117 119 119 110 114 106 104 104 99 99 102 99 99 97 95 97 101 103 108 106 109
151 152 152 150 158 151 144 144 135 131 122 124 125 127 116 114 113 106 115 110 114 115 115 112 111 111 108 108 108 100 95 96 96 96 92 98 98 93 89 90 96 101 108
147 142 147 146 150 149 150 139 140 132 123 120 117 115 111 113 116 110 110 116 118 116 115 113 109 112 111 109 105 108 107 103 100 90 94 91 96 96 97 99 92 89 86
147 146 143 142 146 153 151 140 143 141 131 117 111 118 117 117 118 113 112 108 107 104 108 109 110 107 103 103 98 92 93 97 96 87 88 91 88 86 85 85 85 82 83
139 138 134 130 127 132 128 127 136 130 126 130 124 120 120 122 121 118 116 113 117 116 112 111 111 105 100 100 91 87 86 85 84 86 86 88 81 73 80 87 84 76 69
139 138 136 136 133 129 128 136 128 131 136 116 118 115 118 122 118 115 118 114 109 113 113 111 109 107 98 95 92 88 84 81 82 84 85 84 93 90 78 72 77 76 67
140 138 138 135 133 122 112 114 119 122 120 117 115 120 114 115 111 116 117 110 111 120 115 106 113 106 96 93 88 86 82 80 82 82 81 83 83 84 81 77 70 64 59
147 147 145 141 136 138 127 132 128 120 121 122 114 114 115 118 111 115 109 110 114 122 118 115 112 104 97 90 87 81 77 77 79 81 85 87 87 86 82 74 66 62 56
158 158 158 155 155 147 137 142 136 135 131 129 124 118 117 116 111 109 108 115 119 123 120 118 114 107 99 94 83 75 72 73 78 86 91 92 93 86 79 70 64 56 49
163 166 162 157 153 143 153 146 137 134 126 120 119 119 118 117 114 113 114 117 118 123 123 116 113 110 102 92 79 73 71 74 84 92 95 99 93 85 72 60 51 55 42
169 166 163 157 154 153 161 149 146 133 126 123 121 118 121 115 111 112 113 112 115 124 127 118 117 113 102 88 70 67 68 79 92 100 101 100 92 79 62 50 40 39 32
170 166 164 164 161 160 159 155 153 146 134 131 135 127 122 119 117 113 111 108 115 125 131 125 122 112 103 86 59 47 70 88 99 104 98 94 82 60 37 29 23 28 23
172 170 168 167 168 171 163 156 149 143 139 142 137 131 127 121 114 108 104 102 105 112 123 127 125 128 116 64 44 38 70 94 104 104 95 107 63 40 22 21 12 13 20
182 173 170 169 166 167 160 152 146 141 134 140 140 134 133 129 121 113 112 116 125 129 132 135 138 146 151 118 58 35 65 96 103 95 81 88 75 32 0 24 10 14 20
185 182 175 172 169 169 167 155 152 148 141 140 143 141 142 138 130 124 113 107 127 145 146 137 129 134 134 88 71 65 80 99 103 105 74 36 30 3 354 354 0 19 28
186 186 180 176 175 167 166 161 159 155 151 147 143 141 145 147 142 135 126 125 123 149 146 145 135 129 110 84 94 98 96 107 113 97 39 18 1 7 349 342 353 26 37
189 187 185 181 177 174 170 173 168 162 155 146 145 155 166 163 151 141 132 133 126 145 157 152 168 170 136 105 92 99 123 122 100 51 4 3 0 4 16 23 15 32 32
196 198 194 188 182 173 178 181 183 174 169 163 168 167 169 166 156 145 154 159 155 143 154 166 185 192 210 153 110 126 126 88 29 2 1 11 4 353 12 16 13 7 21
205 204 200 192 186 181 183 189 186 182 181 184 185 182 178 175 178 185 194 197 184 233 197 213 243 265 193 189 175 128 94 76 335 346 351 348 345 354 353 359 4 3 3
208 214 210 200 193 188 188 190 186 193 194 190 191 194 200 200 212 208 226 237 239 219 266 250 272 158 158 188 196 170 156 285 303 312 327 333 340 348 358 353 4 358 12
212 214 218 209 203 198 195 197 201 205 194 203 202 204 224 220 213 226 247 242 244 234 228 243 279 239 198 206 235 240 261 281 290 294 303 318 329 329 327 316 328 345 20
211 213 215 215 208 201 196 196 204 190 192 203 208 211 220 214 225 237 236 253 246 241 234 223 226 206 203 229 232 247 272 282 285 287 289 301 315 337 339 298 295 292 357
211 213 217 215 212 215 204 205 196 198 202 199 203 198 199 199 207 225 241 247 245 240 234 228 223 220 228 239 245 225 257 266 304 300 282 283 313 328 304 328 3 327 246
216 213 212 213 208 200 208 203 197 209 208 198 203 211 216 223 236 218 223 226 237 229 231 239 237 232 232 239 248 243 253 289 310 316 327 323 323 354 345 147 357 313 269
218 217 209 213 207 205 204 196 199 197 201 206 214 222 219 233 244 228 222 229 236 217 222 234 241 243 239 242 249 254 252 274 292 327 12 12 3 11 32 16 350 323 274
220 216 219 211 215 210 213 211 213 211 208 208 215 223 225 238 249 235 223 223 247 227 222 223 229 231 222 231 241 241 234 241 275 297 328 335 341 344 345 351 352 337 293
Wind_Speed_850mb
35 31 31 29 30 30 27 26 27 29 30 27 24 22 22 22 22 22 25 22 26 28 32 31 33 34 35 34 35 34 32 33 33 30 29 31 30 25 26 26 24 21 19
32 31 34 28 27 30 30 27 28 28 28 24 21 20 21 20 22 22 28 29 31 31 32 32 33 34 36 36 35 37 33 33 33 28 27 27 26 24 23 21 18 18 13
36 37 32 27 25 28 31 25 24 28 28 26 21 19 20 22 26 28 32 33 31 32 32 33 35 34 36 38 39 34 31 30 27 26 23 24 23 19 18 18 17 14 13
37 34 30 26 22 29 30 28 25 28 24 20 16 22 23 26 28 30 31 33 32 34 31 37 38 40 41 43 39 36 32 30 27 23 23 26 26 23 21 22 21 17 13
38 36 33 32 26 27 28 28 19 20 21 23 21 23 24 27 26 29 31 31 30 33 35 39 42 39 38 36 35 31 33 32 29 28 26 27 28 22 20 23 19 16 14
35 32 35 33 32 31 31 25 21 24 25 25 24 24 26 27 27 27 28 29 31 32 38 38 31 30 32 34 31 32 32 31 28 26 25 24 24 19 20 21 19 16 15
35 36 34 31 34 36 30 22 20 21 24 24 26 26 30 30 27 28 27 29 28 31 33 31 37 32 32 35 32 30 31 30 28 26 25 23 23 23 23 22 21 20 18
33 35 35 35 38 31 20 15 13 16 22 24 26 28 29 28 26 26 28 27 25 32 32 33 26 29 31 31 29 32 33 31 29 28 26 26 26 25 24 22 20 18 18
33 34 33 29 25 22 20 18 18 22 22 22 24 25 27 25 24 25 25 23 26 29 31 28 30 30 31 28 28 31 32 31 30 27 27 27 26 24 22 21 19 16 17
33 31 34 30 26 23 21 21 21 22 24 23 25 26 24 25 24 26 25 24 27 32 32 29 26 24 22 23 25 28 27 30 27 27 27 25 24 22 21 20 24 20 20
31 33 35 30 26 26 23 21 20 22 24 24 26 24 26 28 29 29 28 27 28 31 29 23 20 19 17 17 19 22 27 26 24 25 24 22 20 18 17 17 18 20 21
38 38 36 30 26 24 23 23 22 23 24 25 25 27 30 34 34 34 34 33 29 29 27 24 21 16 11 11 14 18 24 23 22 22 20 21 14 13 15 18 18 18 20
38 37 36 32 27 26 23 24 23 28 30 30 29 30 35 38 42 42 41 37 34 31 25 21 16 12 7 6 10 14 19 20 20 18 10 13 16 8 11 17 18 16 19
42 37 35 32 30 26 25 27 32 33 31 30 30 30 32 38 39 35 29 25 25 25 22 18 13 10 7 5 7 10 14 18 18 17 10 8 9 16 19 21 20 20 16
41 39 38 36 32 27 28 36 34 31 27 29 27 27 31 32 28 21 18 17 22 25 24 19 15 11 9 6 9 11 16 20 18 15 10 13 10 12 17 18 19 19 14
40 39 39 38 34 32 34 37 32 28 27 27 27 29 31 24 18 15 14 14 15 24 23 22 18 16 14 15 15 19 21 20 16 10 6 12 19 18 16 15 17 15 12
40 35 40 40 39 37 40 35 31 26 29 29 28 25 18 17 19 13 11 11 15 23 19 17 15 11 9 12 14 14 12 13 9 5 10 16 20 17 17 22 14 14 8
37 41 41 43 42 42 41 37 29 28 33 27 18 18 20 20 17 10 9 10 14 12 8 11 7 6 10 9 3 6 9 3 3 7 10 15 20 20 14 17 14 10 14
39 42 43 48 43 39 36 34 35 32 31 25 20 19 16 14 11 9 8 10 8 5 4 8 6 4 8 11 7 7 6 2 4 8 12 17 21 26 12 12 15 13 14
44 41 42 48 38 41 34 35 37 35 35 27 24 18 15 17 12 11 11 13 10 6 3 9 9 3 11 12 8 4 2 5 11 14 18 19 22 27 16 8 9 18 8
45 41 45 53 41 45 42 44 41 37 42 31 29 28 16 19 14 15 16 20 15 11 7 8 11 5 9 10 12 12 11 15 20 21 24 22 24 21 15 12 8 7 9
40 42 46 50 49 42 38 36 38 40 39 30 27 31 20 18 21 18 20 16 20 18 13 14 7 7 9 6 9 16 17 20 24 26 25 23 23 20 13 12 11 7 5
46 45 40 44 54 48 51 32 42 45 40 33 33 27 21 16 17 17 18 21 19 24 24 19 17 13 13 10 11 6 7 9 19 21 23 21 16 21 10 4 2 8 5
50 45 38 38 46 48 43 46 46 43 39 40 27 23 21 18 14 18 12 13 22 28 31 23 22 20 18 17 14 13 11 8 7 11 13 8 14 20 2 2 7 7 5
55 48 43 44 46 48 46 57 46 42 42 36 31 26 25 23 19 22 20 14 11 21 24 25 22 23 23 21 18 16 14 12 11 9 10 10 10 16 15 11 11 8 8
56 56 50 51 46 52 56 59 58 47 44 39 37 32 32 24 22 26 27 24 14 18 20 20 19 19 22 21 22 14 13 12 9 9 10 13 13 13 17 15 16 13 14
Wind_Direction_850mb
160 164 159 149 155 150 144 138 128 131 130 130 128 122 119 116 111 109 112 117 123 118 117 119 119 110 114 106 104 104 99 99 102 99 99 97 95 97 101 103 108 106 109
151 152 152 150 158 151 144 144 135 131 122 124 125 127 116 114 113 106 115 110 114 115 115 112 111 111 108 108 108 100 95 96 96 96 92 98 98 93 89 90 96 101 108
147 142 147 146 150 149 150 139 140 132 123 120 117 115 111 113 116 110 110 116 118 116 115 113 109 112 111 109 105 108 107 103 100 90 94 91 96 96 97 99 92 89 86
147 146 143 142 146 153 151 140 143 141 131 117 111 118 117 117 118 113 112 108 107 104 108 109 110 107 103 103 98 92 93 97 96 87 88 91 88 86 85 85 85 82 83
139 138 134 130 127 132 128 127 136 130 126 130 124 120 120 122 121 118 116 113 117 116 112 111 111 105 100 100 91 87 86 85 84 86 86 88 81 73 80 87 84 76 69
139 138 136 136 133 129 128 136 128 131 136 116 118 115 118 122 118 115 118 114 109 113 113 111 109 107 98 95 92 88 84 81 82 84 85 84 93 90 78 72 77 76 67
140 138 138 135 133 122 112 114 119 122 120 117 115 120 114 115 111 116 117 110 111 120 115 106 113 106 96 93 88 86 82 80 82 82 81 83 83 84 81 77 70 64 59
147 147 145 141 136 138 127 132 128 120 121 122 114 114 115 118 111 115 109 110 114 122 118 115 112 104 97 90 87 81 77 77 79 81 85 87 87 86 82 74 66 62 56
158 158 158 155 155 147 137 142 136 135 131 129 124 118 117 116 111 109 108 115 119 123 120 118 114 107 99 94 83 75 72 73 78 86 91 92 93 86 79 70 64 56 49
163 166 162 157 153 143 153 146 137 134 126 120 119 119 118 117 114 113 114 117 118 123 123 116 113 110 102 92 79 73 71 74 84 92 95 99 93 85 72 60 51 55 42
169 166 163 157 154 153 161 149 146 133 126 123 121 118 121 115 111 112 113 112 115 124 127 118 117 113 102 88 70 67 68 79 92 100 101 100 92 79 62 50 40 39 32
170 166 164 164 161 160 159 155 153 146 134 131 135 127 122 119 117 113 111 108 115 125 131 125 122 112 103 86 59 47 70 88 99 104 98 94 82 60 37 29 23 28 23
172 170 168 167 168 171 163 156 149 143 139 142 137 131 127 121 114 108 104 102 105 112 123 127 125 128 116 64 44 38 70 94 104 104 95 107 63 40 22 21 12 13 20
182 173 170 169 166 167 160 152 146 141 134 140 140 134 133 129 121 113 112 116 125 129 132 135 138 146 151 118 58 35 65 96 103 95 81 88 75 32 0 24 10 14 20
185 182 175 172 169 169 167 155 152 148 141 140 143 141 142 138 130 124 113 107 127 145 146 137 129 134 134 88 71 65 80 99 103 105 74 36 30 3 354 354 0 19 28
186 186 180 176 175 167 166 161 159 155 151 147 143 141 145 147 142 135 126 125 123 149 146 145 135 129 110 84 94 98 96 107 113 97 39 18 1 7 349 342 353 26 37
189 187 185 181 177 174 170 173 168 162 155 146 145 155 166 163 151 141 132 133 126 145 157 152 168 170 136 105 92 99 123 122 100 51 4 3 0 4 16 23 15 32 32
196 198 194 188 182 173 178 181 183 174 169 163 168 167 169 166 156 145 154 159 155 143 154 166 185 192 210 153 110 126 126 88 29 2 1 11 4 353 12 16 13 7 21
205 204 200 192 186 181 183 189 186 182 181 184 185 182 178 175 178 185 194 197 184 233 197 213 243 265 193 189 175 128 94 76 335 346 351 348 345 354 353 359 4 3 3
208 214 210 200 193 188 188 190 186 193 194 190 191 194 200 200 212 208 226 237 239 219 266 250 272 158 158 188 196 170 156 285 303 312 327 333 340 348 358 353 4 358 12
212 214 218 209 203 198 195 197 201 205 194 203 202 204 224 220 213 226 247 242 244 234 228 243 279 239 198 206 235 240 261 281 290 294 303 318 329 329 327 316 328 345 20
211 213 215 215 208 201 196 196 204 190 192 203 208 211 220 214 225 237 236 253 246 241 234 223 226 206 203 229 232 247 272 282 285 287 289 301 315 337 339 298 295 292 357
211 213 217 215 212 215 204 205 196 198 202 199 203 198 199 199 207 225 241 247 245 240 234 228 223 220 228 239 245 225 257 266 304 300 282 283 313 328 304 328 3 327 246
216 213 212 213 208 200 208 203 197 209 208 198 203 211 216 223 236 218 223 226 237 229 231 239 237 232 232 239 248 243 253 289 310 316 327 323 323 354 345 147 357 313 269
218 217 209 213 207 205 204 196 199 197 201 206 214 222 219 233 244 228 222 229 236 217 222 234 241 243 239 242 249 254 252 274 292 327 12 12 3 11 32 16 350 323 274
220 216 219 211 215 210 213 211 213 211 208 208 215 223 225 238 249 235 223 223 247 227 222 223 229 231 222 231 241 241 234 241 275 297 328 335 341 344 345 351 352 337 293